Location: Nederland
(52.1000°N, 5.2000°E)
Time: 13:26:48
(UTC+02:00)

X-37B - Visible Passes

Search period start: 30 July 2021 00:00
Search period end: 09 August 2021 00:00
Orbit: 383 x 392 km, 45.0° (Epoch: 01 July)

Date Brightness Start Highest point End Pass type
(mag) Time Alt. Az. Time Alt. Az. Time Alt. Az.
03 Aug 2.9 05:12:41 10° S 05:14:19 13° SSE 05:15:56 10° SE visible
05 Aug 2.5 04:52:22 13° SSW 04:53:56 17° SSE 04:56:08 10° ESE visible
06 Aug 3.0 03:56:29 13° SE 03:56:29 13° SE 03:57:27 10° SE visible
07 Aug 2.2 04:32:54 19° S 04:33:36 20° S 04:36:04 10° ESE visible
08 Aug 3.1 03:37:06 13° SE 03:37:06 13° SE 03:37:39 10° ESE visible
08 Aug 2.0 05:09:22 13° SW 05:11:29 23° S 05:14:05 10° SE visible
